Location: Ceske Budejovice
(48.9830°N, 14.4670°E)
Time: 19:20:51
(UTC+02:00)

ISS - Pass Details

Date: 06 July 2022
Orbit: 412 x 419 km, 51.6° (Epoch: 09 August)

Event Time Altitude Azimuth Distance (km) Brightness Sun altitude
Exits shadow 02:34:58 27° 248° (WSW) 829 -2.6 -15.7°
Maximum altitude 02:36:38 88° 163° (SSE) 423 -3.9 -15.6°
Drops below altitude 10° 02:40:00 10° 70° (ENE) 1,501 -0.4 -15.4°
Sets 02:42:07 0° 71° (ENE) 2,369 0.7 -15.2°
